Warrenton, OR

1:02 AM PDT on August 25, 2016 (GMT -0700)
Astoria Regional

Weather History for KAST - December, 2012

Change the Weather History Date:

Sunday, December 9, 2012

  Actual Average Record
Temperature  
Mean Temperature 46 °F 43 °F  
Max Temperature 51 °F 49 °F 61 °F (1981)
Min Temperature 41 °F 37 °F 16 °F (2009)
Degree Days  
Heating Degree Days 19 22  
Month to date heating degree days 157 195  
Since 1 July heating degree days 1562 1608  
Cooling Degree Days 0 0  
Month to date cooling degree days 0 0  
Year to date cooling degree days 25 12  
Moisture  
Dew Point 44 °F    
Average Humidity 95    
Maximum Humidity 100    
Minimum Humidity 89    
Precipitation  
Precipitation 0.35 in 0.31 in 4.33 in (1933)
Month to date precipitation 4.25 3.09  
Year to date precipitation 80.97 60.46  
Snow  
Snow 0.00 in - - ()
Snow Depth 0.00 in    
Sea Level Pressure  
Sea Level Pressure 30.32 in    
Wind  
Wind Speed 5 mph (ESE)    
Max Wind Speed 16 mph    
Max Gust Speed 24 mph    
Visibility 4 miles    
Events Rain    
T = Trace of Precipitation, MM = Missing Value Source: NWS Daily Summary

Daily Weather History Graph

Daily Weather History Graph

Search for Another Location

Airport or City:

Trip Planner

Search our weather history database for the weather conditions in past years. The results will help you decide how hot, cold, wet, or windy it might be!

Date:

Astronomy

Dec. 09, 2012 Rise Set
Actual Time 7:46 AM PST 4:29 PM PST
Civil Twilight 7:12 AM PST 5:04 PM PST
Nautical Twilight 6:34 AM PST 5:42 PM PST
Astronomical Twilight 5:57 AM PST 6:18 PM PST
Moon 3:16 AM PST (12/9) 1:48 PM PST (12/9)
Length of Visible Light 9h 51m
Length of Day
8h 42m
Waning Crescent, 17% of the Moon is Illuminated
Dec 9
Waning Crescent
Dec 13
New
Dec 19
First Quarter
Dec 28
Full
Jan 4
Last Quarter

Hourly Weather History & Observations

Time (PST) Temp. Windchill Dew Point Humidity Pressure Visibility Wind Dir Wind Speed Gust Speed Precip Events Conditions
12:27 AM 41.0 °F 39.0 °F 39.2 °F 93% 30.33 in 10.0 mi ESE 3.5 mph - 0.01 in Rain Light Rain
12:55 AM 41.0 °F 39.0 °F 39.9 °F 96% 30.33 in 10.0 mi ESE 3.5 mph - 0.01 in   Overcast
1:14 AM 41.0 °F 38.0 °F 39.2 °F 93% 30.33 in 10.0 mi East 4.6 mph - N/A   Overcast
1:55 AM 41.0 °F 39.0 °F 39.9 °F 96% 30.33 in 9.0 mi East 3.5 mph - N/A   Overcast
2:17 AM 41.0 °F 38.0 °F 39.2 °F 93% 30.33 in 10.0 mi ESE 4.6 mph - N/A   Overcast
2:55 AM 41.0 °F 39.0 °F 39.9 °F 96% 30.34 in 10.0 mi East 3.5 mph - N/A   Overcast
3:21 AM 41.0 °F 39.0 °F 39.2 °F 93% 30.34 in 10.0 mi ESE 3.5 mph - 0.00 in Rain Light Rain
3:55 AM 41.0 °F - 39.9 °F 96% 30.33 in 9.0 mi Calm Calm - 0.01 in Rain Light Rain
4:55 AM 41.0 °F 38.0 °F 39.9 °F 96% 30.33 in 10.0 mi ESE 4.6 mph - 0.00 in Rain Light Rain
5:46 AM 41.0 °F 38.0 °F 39.2 °F 93% 30.32 in 10.0 mi ESE 4.6 mph - 0.00 in   Overcast
5:55 AM 41.0 °F 38.0 °F 39.9 °F 96% 30.33 in 10.0 mi East 4.6 mph - 0.00 in   Overcast
6:45 AM 42.8 °F 41.1 °F 39.2 °F 87% 30.33 in 10.0 mi East 3.5 mph - N/A   Overcast
6:55 AM 42.1 °F 40.2 °F 39.9 °F 92% 30.33 in 10.0 mi East 3.5 mph - N/A   Overcast
7:55 AM 42.1 °F 39.2 °F 41.0 °F 96% 30.33 in 5.0 mi ESE 4.6 mph - 0.01 in Rain Light Rain
8:55 AM 42.1 °F 40.2 °F 41.0 °F 96% 30.33 in 9.0 mi East 3.5 mph - 0.01 in   Overcast
9:34 AM 42.8 °F 40.1 °F 42.8 °F 100% 30.33 in 1.8 mi ESE 4.6 mph - 0.00 in Rain Light Rain
9:53 AM 42.8 °F 38.6 °F 42.8 °F 100% 30.33 in 2.5 mi East 6.9 mph - 0.02 in Rain Light Rain
9:55 AM 43.0 °F 39.5 °F 42.1 °F 97% 30.33 in 3.0 mi East 5.8 mph - 0.02 in Rain Light Rain
10:10 AM 42.8 °F 39.3 °F 42.8 °F 100% 30.33 in 2.0 mi East 5.8 mph - 0.00 in Rain Light Rain
10:51 AM 44.6 °F - 42.8 °F 93% 30.32 in 1.5 mi Calm Calm - 0.01 in Rain Light Rain
10:55 AM 44.1 °F 42.5 °F 43.0 °F 96% 30.32 in 1.8 mi ESE 3.5 mph - 0.02 in Rain Light Rain
11:05 AM 44.6 °F 43.1 °F 42.8 °F 93% 30.32 in 2.5 mi East 3.5 mph - 0.00 in Rain Light Rain
11:14 AM 44.6 °F 42.2 °F 44.6 °F 100% 30.32 in 3.0 mi East 4.6 mph - 0.00 in   Overcast
11:24 AM 44.6 °F 43.1 °F 42.8 °F 93% 30.31 in 2.5 mi East 3.5 mph - 0.00 in Rain Light Rain
11:33 AM 44.6 °F 43.1 °F 44.6 °F 100% 30.31 in 3.0 mi East 3.5 mph - 0.00 in Rain Light Rain
11:40 AM 44.6 °F 41.4 °F 44.6 °F 100% 30.31 in 2.5 mi East 5.8 mph - 0.01 in Rain Light Rain
11:55 AM 45.0 °F 43.5 °F 44.1 °F 97% 30.31 in 3.0 mi East 3.5 mph - 0.01 in Rain Light Rain
12:04 PM 44.6 °F - 44.6 °F 100% 30.31 in 2.0 mi Calm Calm - 0.00 in Rain Light Rain
12:15 PM 44.6 °F 43.1 °F 44.6 °F 100% 30.32 in 1.5 mi North 3.5 mph - 0.01 in Rain Light Rain
12:23 PM 44.6 °F 43.1 °F 44.6 °F 100% 30.32 in 1.2 mi NNE 3.5 mph - 0.03 in Rain Light Rain
12:35 PM 44.6 °F - 44.6 °F 100% 30.32 in 1.8 mi Calm Calm - 0.03 in Rain Light Rain
12:55 PM 45.0 °F - 45.0 °F 100% 30.32 in 3.0 mi Calm Calm - 0.05 in Rain Light Rain
1:27 PM 46.4 °F 45.2 °F 44.6 °F 93% 30.30 in 2.0 mi ESE 3.5 mph - 0.00 in Rain Light Rain
1:43 PM 46.4 °F 44.3 °F 44.6 °F 93% 30.29 in 6.0 mi Variable 4.6 mph - 0.00 in   Overcast
1:55 PM 46.9 °F - 46.0 °F 97% 30.29 in 4.0 mi Variable 3.5 mph - 0.00 in Rain Light Rain
2:23 PM 48.2 °F - 46.4 °F 93% 30.29 in 10.0 mi SSE 3.5 mph - 0.01 in Rain Light Rain
2:55 PM 48.9 °F - 46.9 °F 93% 30.29 in 9.0 mi Variable 5.8 mph - 0.01 in   Overcast
3:55 PM 48.9 °F - 46.9 °F 93% 30.29 in 4.0 mi South 10.4 mph - 0.01 in Rain Light Rain
4:25 PM 48.2 °F - 46.4 °F 93% 30.28 in 4.0 mi SSW 12.7 mph 24.2 mph 0.01 in Rain Light Rain
4:50 PM 48.2 °F - 48.2 °F 100% 30.29 in 3.0 mi SSW 11.5 mph 20.7 mph 0.02 in Rain Light Rain
4:55 PM 48.9 °F - 48.0 °F 97% 30.30 in 2.5 mi SSW 10.4 mph 18.4 mph 0.03 in Rain Light Rain
5:09 PM 50.0 °F - 48.2 °F 94% 30.29 in 3.0 mi SSW 11.5 mph - 0.01 in Rain Light Rain
5:55 PM 50.0 °F - 48.0 °F 93% 30.30 in 2.5 mi SSW 13.8 mph 19.6 mph 0.05 in Rain Light Rain
6:07 PM 50.0 °F - 48.2 °F 94% 30.30 in 2.0 mi SSW 9.2 mph 18.4 mph 0.01 in Rain Light Rain
6:55 PM 50.0 °F - 48.9 °F 96% 30.31 in 2.5 mi SW 8.1 mph - 0.06 in Rain Light Rain
7:36 PM 50.0 °F - 48.2 °F 94% 30.31 in 2.5 mi NNW 3.5 mph - 0.03 in Rain Light Rain
7:51 PM 48.2 °F - 48.2 °F 100% 30.30 in 1.8 mi Calm Calm - 0.03 in   Overcast
7:55 PM 48.0 °F - 48.0 °F 100% 30.31 in 1.8 mi WNW 3.5 mph - 0.03 in   Overcast
8:07 PM 46.4 °F 44.3 °F 46.4 °F 100% 30.32 in 2.0 mi NNW 4.6 mph - N/A   Overcast
8:18 PM 46.4 °F 44.3 °F 46.4 °F 100% 30.32 in 1.8 mi NNW 4.6 mph - N/A   Overcast
8:37 PM 46.4 °F 44.3 °F 46.4 °F 100% 30.33 in 2.0 mi NNW 4.6 mph - 0.01 in   Overcast
8:55 PM 46.0 °F 44.8 °F 46.0 °F 100% 30.33 in 1.8 mi WNW 3.5 mph - 0.01 in   Overcast
9:06 PM 46.4 °F - 46.4 °F 100% 30.34 in 2.0 mi Calm Calm - N/A   Overcast
9:15 PM 46.4 °F - 46.4 °F 100% 30.34 in 1.8 mi Calm Calm - N/A   Overcast
9:38 PM 46.4 °F - 46.4 °F 100% 30.33 in 1.8 mi Calm Calm - 0.01 in   Overcast
9:47 PM 46.4 °F - 46.4 °F 100% 30.33 in 2.5 mi Calm Calm - 0.01 in   Overcast
9:55 PM 46.9 °F - 46.9 °F 100% 30.34 in 3.0 mi Calm Calm - 0.01 in   Overcast
10:04 PM 46.4 °F 45.2 °F 46.4 °F 100% 30.34 in 2.0 mi WSW 3.5 mph - N/A   Overcast
10:26 PM 48.2 °F - 48.2 °F 100% 30.35 in 3.0 mi WNW 5.8 mph - N/A   Overcast
10:40 PM 48.2 °F - 48.2 °F 100% 30.35 in 2.0 mi West 8.1 mph - N/A Rain Light Rain
10:55 PM 48.0 °F - 48.0 °F 100% 30.35 in 3.0 mi West 8.1 mph - 0.01 in   Overcast
11:14 PM 48.2 °F - 46.4 °F 93% 30.36 in 4.0 mi West 6.9 mph - N/A   Overcast
11:27 PM 48.2 °F - 46.4 °F 93% 30.38 in 8.0 mi WNW 6.9 mph - 0.00 in Rain Light Rain
11:55 PM 46.9 °F - 46.9 °F 100% 30.38 in 6.0 mi West 5.8 mph - 0.00 in Rain Light Rain